STARLINK-5269, 54161

Orbit data source: Space-Track

STARLINK-5269, 54161 is a payload satellite owned by SpaceX/Seattle (US) in LEO that was launched on Fri, 28 Oct 2022 UTC via an FALCON 9 launch vehicle from the Air Force Western Test Range (AFWTR). Payload-class satellites include a variety of spacecraft equipped with specific instruments for various scientific and technological missions. These include communications satellites like Starlink; space stations such as the ISS; scientific satellites like the Hubble; Earth observation satellites from companies like Planet Labs, Umbra, and HawkEye 360; GPS; miniature CubeSats for education and research; and military/defense satellites.

Loading next visibility...
Identifier
54161, 2022-141E
Orbit
LEO
Country
Flag of USUS
Related business
Manufacturer
SpaceX/Seattle
Mission
Operational Commercial Communications
Bus & Motor
STARLINK, Unknown motor
Mass
305 kg wet, ~290 kg dry
Launch date (UTC)
2022-10-28 (4 years ago)
Launch vehicle
FALCON 9
Launch site
Air Force Western Test Range (AFWTR)
Object type
Payload
Rocket body
Debris
Shape & HBR
Box + 1 Pan, 10.1 m
Radar Cross Section
13.562 m², Large (>1 m²)

Expand to show TLE details & history
Last TLE update: 3 days ago

TLE from 3 days ago
0 STARLINK-5269
1 54161U 22141E   26170.61910531  .00000390  00000-0  42595-4 0  9990
2 54161  53.1606 276.5350 0001075  89.8165 270.2949 15.08835400201109
Epoch: 2026-06-19T14:51Z
TLE epoch observation values (Epoch: 2026-06-19T14:51:30.698Z)
Latitude
-0.00009°
Longitude
145.81154°
Altitude
540.645 km
Speed
7.593 km/s
True Right ascension
18h 26m 08s
True Declination
0° 00' 00"
Sunlit
Object was in full shadow at epoch
Visualization orbit readout
Latitude
Unknown
Longitude
Unknown
Altitude
Unknown
Speed
Unknown
Apparent Right ascension
Unknown
Apparent Declination
Unknown
Sunlit
N/A
Visualization observer readout
Local Sidereal Time
21:27:49
Azimuth
Unknown
Elevation
Unknown
Doppler factor
Unknown
Orbital elements
Apogee altitude
540.755 km
Perigee altitude
539.268 km
Semi-major axis
6,918.148 km
Eccentricity
0.00011
Inclination
53.1606°
RAAN
276.535°
Arg. of periapsis
89.8165°
True anomaly
270.28258°
Mean anomaly
270.2949°
Eccentric anomaly
270.28874°
Mean motion
3.77188 °/min
Orbital period
95.44 mins
BSTAR
0.000042595
Loading maneuver chart data...
Computing Atmospheric mass density...
Loading historical data...
Loading historical data...
Loading historical data...
Loading historical data...
Loading historical data...
Loading historical data...
Loading historical data...

Documentation

Showing up to 5 results
|